[[{"header":{"parameterUnit":"m.s-1","parameterCategory":2,"la1":30.2991,"la2":30.254,"lo1":-89.0895,"lo2":-89.0444,"dy":0.0017,"dx":0.0017,"nx":28,"ny":28,"refTime":"2024-04-07T21:00:00:Z","depth":"0","parameterNumber":2,"parameterNumberName":"U-component_of_CURRENTS"},"data":[0,0,0,0,0,0,0,0,0,0,0,0,0,0,0,0,0,0,0,0,0,0,0,0,0,0,0,0,0,0,0,0,0,0,0,0,0,0,0,0,0,0,0,0,0,0,0,0,0,0,0,0,0,0,0,0,0,0,-0.2436,-0.2437,0,-0.2491,-0.2491,-0.2492,-0.2464,-0.2463,-0.2462,-0.246,-0.2462,-0.2463,-0.2465,0,0,0,0,0,0,0,0,0,0,0,0,0,-0.2277,-0.2281,-0.2436,-0.2437,-0.2438,-0.2491,-0.2491,-0.2492,-0.2465,-0.2463,-0.2461,-0.246,-0.2462,-0.2463,-0.2465,0,0,0,0,0,0,0,0,0,0,0,0,0,-0.2339,-0.2282,-0.2436,-0.2432,-0.2432,-0.249,-0.2491,-0.2492,-0.2465,-0.2463,-0.2461,-0.2459,-0.2461,-0.2463,-0.2465,-0.2515,0,0,-0.2471,-0.2471,0,0,0,0,0,0,0,0,-0.2336,-0.2345,-0.2432,-0.2432,-0.2432,-0.247,-0.2436,-0.2498,-0.2465,-0.2451,-0.246,-0.2458,-0.2462,-0.2464,-0.2477,-0.2515,-0.2516,-0.2471,-0.2472,-0.2473,-0.2473,0,0,0,0,0,0,0,-0.2332,-0.2342,-0.2456,-0.2433,-0.2433,-0.2416,-0.2423,-0.2447,-0.2465,-0.2452,-0.245,-0.2459,-0.2462,-0.2476,-0.2477,-0.2516,-0.2471,-0.2472,-0.2474,-0.2474,-0.2562,-0.2563,0,0,0,0,0,0,-0.2333,-0.2339,-0.2455,-0.2458,-0.238,-0.2421,-0.2428,-0.2459,-0.2466,-0.2466,-0.2461,-0.2458,-0.2473,-0.2475,-0.2477,-0.2504,-0.2473,-0.2474,-0.2476,-0.2561,-0.2562,-0.2563,0,0,0,0,0,0,-0.2329,-0.2343,-0.2452,-0.2399,-0.2412,-0.2426,-0.246,-0.2461,-0.2477,-0.2473,-0.2471,-0.2476,-0.2472,-0.2474,-0.2512,-0.2505,-0.2475,-0.2477,-0.2559,-0.2561,-0.2563,-0.258,0,0,0,0,0,0,-0.2325,-0.2342,-0.2365,-0.24,-0.2415,-0.2501,-0.2462,-0.2463,-0.2486,-0.2483,-0.2486,-0.2484,-0.247,-0.2509,-0.2514,-0.2507,-0.2479,-0.2558,-0.256,-0.2562,-0.2578,-0.2582,-0.2586,0,0,0,0,0,-0.2319,-0.2364,-0.2366,-0.238,-0.2446,-0.2503,-0.251,-0.2511,-0.2489,-0.2514,-0.2513,-0.2484,-0.2525,-0.2513,-0.2518,-0.2511,-0.2557,-0.2559,-0.2562,-0.2576,-0.2581,-0.2585,0,0,0,0,0,0,-0.2312,-0.2367,-0.2369,-0.2429,-0.2468,-0.2499,-0.2518,-0.2523,-0.2545,-0.253,-0.2519,-0.252,-0.2539,-0.2541,-0.2528,-0.2544,-0.2529,-0.2533,-0.2538,-0.2543,-0.2547,-0.2525,-0.248,0,0,0,0,0,-0.2322,-0.2358,-0.2412,-0.2454,-0.2476,-0.2499,-0.252,-0.2525,-0.2548,-0.2554,-0.2558,-0.2556,-0.2557,-0.2564,-0.257,-0.2602,-0.259,-0.2596,-0.26,-0.2603,-0.259,-0.2578,-0.2578,-0.2572,-0.2572,-0.2572,0,0,-0.2325,-0.236,-0.2379,-0.2452,-0.2473,-0.2504,-0.2506,-0.2544,-0.2556,-0.2553,-0.2571,-0.2576,-0.2571,-0.2588,-0.2596,-0.2587,-0.2606,-0.2606,-0.2609,-0.2594,-0.2581,-0.2581,-0.2581,-0.2574,-0.2574,-0.2574,0,0,-0.2326,-0.2387,-0.2401,-0.2441,-0.2484,-0.2516,-0.2532,-0.2576,-0.2583,-0.2624,-0.2601,-0.2608,-0.2638,-0.2617,-0.2611,-0.2649,-0.2626,-0.2655,-0.2657,-0.2646,-0.2645,-0.2645,-0.2654,-0.2653,-0.2657,-0.2657,-0.2657,0,-0.2318,-0.2362,-0.2416,-0.2437,-0.2474,-0.252,-0.255,-0.2571,-0.2617,-0.2629,-0.2629,-0.2646,-0.2639,-0.2633,-0.2636,-0.2651,-0.2656,-0.2635,-0.2648,-0.2647,-0.2646,-0.2655,-0.2655,-0.2658,-0.2658,-0.2658,-0.2658,0,-0.2318,-0.2359,-0.2378,-0.2421,-0.2474,-0.2518,-0.2566,-0.26,-0.2625,-0.264,-0.266,-0.2663,-0.2666,-0.2664,-0.266,-0.265,-0.2661,-0.2652,-0.2629,-0.2647,-0.2657,-0.2656,-0.266,-0.2659,-0.2659,-0.2658,0,0,-0.2299,-0.2361,-0.2373,-0.2402,-0.248,-0.2534,-0.2561,-0.262,-0.2649,-0.2664,-0.2697,-0.2673,-0.2675,-0.2669,-0.2662,-0.265,-0.2651,-0.2652,-0.2651,-0.2649,-0.2649,-0.2576,-0.2568,-0.2649,-0.2648,-0.2648,-0.2667,0,-0.2283,-0.2318,-0.2369,-0.2432,-0.2469,-0.2539,-0.2583,-0.2633,-0.2679,-0.2725,-0.2701,-0.2727,-0.2676,-0.2693,-0.2665,-0.2668,-0.2647,-0.2648,-0.2642,-0.2642,-0.2563,-0.2563,-0.2487,-0.2488,-0.2666,-0.2666,-0.2665,0,-0.2281,-0.2307,-0.2346,-0.2461,-0.249,-0.2534,-0.2649,-0.2692,-0.2744,-0.2774,-0.2768,-0.2776,-0.2749,-0.2721,-0.2674,-0.2684,-0.2655,-0.2646,-0.2646,-0.2563,-0.2565,-0.2496,-0.248,-0.2458,-0.2664,-0.2664,-0.2664,0,-0.2255,-0.2329,-0.2365,-0.2394,-0.2496,-0.2538,-0.2614,-0.2693,-0.2747,-0.2798,-0.2839,-0.2814,-0.2812,-0.2766,-0.2705,-0.2708,-0.267,-0.2674,-0.2574,-0.2571,-0.2492,-0.248,-0.2434,-0.2624,-0.2624,-0.2624,-0.2624,0,-0.2248,-0.2282,-0.2352,-0.2366,-0.2455,-0.2536,-0.2634,-0.2697,-0.2781,-0.2827,-0.2849,-0.2858,-0.2821,-0.2792,-0.2737,-0.2639,-0.2679,-0.2563,-0.2558,-0.2499,-0.2489,-0.2454,-0.247,-0.2625,-0.2624,-0.2624,-0.2624,0,-0.2206,-0.2238,-0.2298,-0.2396,-0.2433,-0.2503,-0.2652,-0.2699,-0.279,-0.285,-0.2862,-0.2895,-0.2839,-0.2795,-0.2737,-0.2668,-0.2554,-0.2552,-0.2491,-0.2475,-0.2355,-0.2376,-0.2302,-0.2238,-0.2466,-0.2464,-0.2462,0,-0.2178,-0.2184,-0.2308,-0.2343,-0.2382,-0.2486,-0.2536,-0.2671,-0.2717,-0.2839,-0.2842,-0.2846,-0.2788,-0.2699,-0.2599,-0.2501,-0.2465,-0.2377,-0.2339,-0.2321,-0.2342,-0.2344,-0.2297,-0.2268,-0.2265,-0.2263,-0.2261,0,-0.2125,-0.2171,-0.2234,-0.2292,-0.235,-0.2424,-0.2511,-0.2559,-0.268,-0.2722,-0.2742,-0.2723,-0.2661,-0.2519,-0.2414,-0.2339,-0.2323,-0.232,-0.2314,-0.2179,-0.2166,-0.2112,-0.2312,-0.2238,-0.2241,-0.2242,-0.2243,-0.2244,-0.2101,-0.214,-0.2206,-0.226,-0.2312,-0.2322,-0.234,-0.2397,-0.2442,-0.2454,-0.2545,-0.2475,-0.2446,-0.228,-0.2224,-0.2113,-0.2138,-0.2043,-0.2075,-0.2083,-0.1987,-0.2135,-0.2038,-0.2039,-0.204,-0.2041,-0.2041,0,-0.2046,-0.2088,-0.2148,-0.2204,-0.2191,-0.2239,-0.2274,-0.2231,-0.219,-0.2217,-0.2193,-0.2181,-0.2076,-0.207,-0.1996,-0.1909,-0.1869,-0.1852,-0.1855,-0.1819,-0.1958,-0.1912,-0.1767,-0.1767,-0.1767,-0.1767,-0.1767,-0.1767,-0.2015,-0.205,-0.2074,-0.2045,-0.2053,-0.1981,-0.1957,-0.1891,-0.1879,-0.178,-0.1777,-0.1845,-0.1876,-0.2012,-0.1915,-0.1826,-0.1775,-0.1705,-0.1713,-0.1846,-0.1867,-0.1887,-0.1846,-0.1688,-0.1688,-0.1515,-0.1513,-0.1513]},{"header":{"parameterUnit":"m.s-1","parameterCategory":2,"la1":30.2991,"la2":30.254,"lo1":-89.0895,"lo2":-89.0444,"dy":0.0017,"dx":0.0017,"nx":28,"ny":28,"refTime":"2024-04-07T21:00:00:Z","depth":"0","parameterNumber":3,"parameterNumberName":"V-component_of_CURRENTS"},"data":[0,0,0,0,0,0,0,0,0,0,0,0,0,0,0,0,0,0,0,0,0,0,0,0,0,0,0,0,0,0,0,0,0,0,0,0,0,0,0,0,0,0,0,0,0,0,0,0,0,0,0,0,0,0,0,0,0,0,-0.0108,-0.0108,0,-0.0043,-0.0043,-0.0042,-0.0003,-0.0003,-0.0003,-0.0003,0.0164,0.0168,0.0172,0,0,0,0,0,0,0,0,0,0,0,0,0,-0.0138,-0.0139,-0.0108,-0.0108,-0.0107,-0.0044,-0.0043,-0.0042,-0.0003,-0.0003,-0.0003,-0.0003,0.0162,0.0167,0.0173,0,0,0,0,0,0,0,0,0,0,0,0,0,-0.0105,-0.0139,-0.0109,-0.008,-0.0076,-0.0044,-0.0043,-0.0042,-0.0003,-0.0003,-0.0003,-0.0003,0.0161,0.0167,0.0173,0.0207,0,0,0.0193,0.0195,0,0,0,0,0,0,0,0,-0.0107,-0.0104,-0.0085,-0.0082,-0.0078,-0.0031,0.0008,0.0047,-0.0003,-0.0031,-0.0003,-0.0002,0.0108,0.0119,0.0128,0.0214,0.0221,0.0193,0.0197,0.02,0.0202,0,0,0,0,0,0,0,-0.011,-0.0106,-0.0083,-0.0084,-0.008,-0.0049,-0.0045,0.0015,0.0038,-0.0029,-0.0026,-0.0018,0.0111,0.0122,0.0133,0.0224,0.0193,0.0199,0.0203,0.0205,0.0359,0.036,0,0,0,0,0,0,-0.0121,-0.0109,-0.0085,-0.0081,-0.0092,-0.0049,-0.0044,-0.0047,0.0035,0.0047,-0.0019,-0.0017,0.0111,0.0125,0.0139,0.0189,0.02,0.0206,0.0209,0.0359,0.0359,0.036,0,0,0,0,0,0,-0.0122,-0.012,-0.0088,-0.0092,-0.0086,-0.0049,-0.0052,-0.0045,-0.0037,0.0042,0.0055,-0.0018,0.0112,0.013,0.0196,0.0196,0.0209,0.0214,0.0359,0.0359,0.036,0.0287,0,0,0,0,0,0,-0.0123,-0.0121,-0.0128,-0.0094,-0.0086,-0.0076,-0.0052,-0.0044,-0.0033,-0.003,0.0047,0.0063,0.0114,0.0186,0.0202,0.0205,0.0219,0.0358,0.0359,0.0359,0.0289,0.0285,0.0281,0,0,0,0,0,-0.0125,-0.0136,-0.0129,-0.0126,-0.0098,-0.0076,-0.007,-0.0042,-0.0033,-0.0033,0.0026,0.006,0.02,0.0191,0.021,0.0215,0.0358,0.0359,0.0359,0.0291,0.0286,0.0282,0,0,0,0,0,0,-0.0158,-0.0132,-0.0124,-0.0129,-0.0108,-0.007,-0.0067,-0.0049,-0.0006,0.0,0.0071,0.0091,0.0146,0.0193,0.0181,0.0261,0.0282,0.0287,0.0224,0.022,0.0216,0.0227,0.0225,0,0,0,0,0,-0.0169,-0.0169,-0.0141,-0.0146,-0.0138,-0.0105,-0.0094,-0.0076,-0.0033,-0.0016,0.0039,0.0102,0.0163,0.02,0.0257,0.0307,0.0356,0.0321,0.0317,0.0313,0.0335,0.0399,0.0402,0.0362,0.0362,0.0362,0,0,-0.0184,-0.017,-0.0171,-0.0153,-0.0134,-0.0121,-0.0098,-0.0086,-0.0067,-0.0001,0.0042,0.0091,0.0173,0.0224,0.0253,0.0265,0.0346,0.0314,0.031,0.0335,0.04,0.0404,0.0407,0.0362,0.0362,0.0362,0,0,-0.0205,-0.0203,-0.0205,-0.019,-0.0165,-0.0142,-0.0142,-0.0107,-0.0085,-0.0038,0.0012,0.0069,0.0153,0.0214,0.0257,0.0271,0.032,0.0274,0.0271,0.033,0.0334,0.0339,0.0383,0.0392,0.0275,0.0275,0.0275,0,-0.0224,-0.0221,-0.0203,-0.0197,-0.0184,-0.0154,-0.0148,-0.012,-0.0067,-0.0039,-0.0031,0.0099,0.0157,0.0241,0.0241,0.0264,0.0297,0.0276,0.0325,0.033,0.0336,0.0381,0.0391,0.0272,0.0272,0.0272,0.0273,0,-0.0237,-0.0235,-0.0236,-0.0216,-0.0204,-0.0196,-0.0156,-0.0138,-0.0108,-0.0069,0.0005,0.0084,0.0163,0.018,0.0221,0.0285,0.0293,0.0305,0.0332,0.0335,0.0382,0.0395,0.0267,0.0268,0.0269,0.027,0,0,-0.0264,-0.0249,-0.0244,-0.0253,-0.0212,-0.0214,-0.0174,-0.013,-0.011,-0.0047,0.0001,0.0101,0.0134,0.0186,0.0234,0.0293,0.0346,0.0309,0.0314,0.0346,0.0465,0.0452,0.0465,0.0355,0.0358,0.036,0.0473,0,-0.0273,-0.0275,-0.0254,-0.0262,-0.0265,-0.0228,-0.02,-0.0158,-0.0109,-0.0058,0.0039,0.0098,0.0138,0.0164,0.0232,0.0326,0.0379,0.0314,0.0466,0.0471,0.0453,0.048,0.0487,0.0587,0.0485,0.0487,0.0489,0,-0.0254,-0.0282,-0.0284,-0.0296,-0.0294,-0.0292,-0.0255,-0.0229,-0.0137,-0.0097,-0.001,0.006,0.0174,0.0188,0.0365,0.0316,0.0387,0.0455,0.046,0.0492,0.0483,0.0575,0.0615,0.0744,0.0509,0.0507,0.0506,0,-0.0249,-0.0279,-0.0291,-0.0295,-0.0309,-0.031,-0.0306,-0.0238,-0.0224,-0.0123,-0.0089,0.0052,0.0124,0.0247,0.0392,0.0376,0.0576,0.057,0.0629,0.0628,0.0692,0.0692,0.0876,0.0686,0.0686,0.0686,0.0685,0,-0.0215,-0.0229,-0.031,-0.0321,-0.0394,-0.0361,-0.0377,-0.035,-0.0281,-0.0253,-0.0123,-0.0058,0.0141,0.0279,0.0396,0.056,0.0582,0.0649,0.0667,0.0662,0.0659,0.0821,0.0872,0.069,0.0689,0.0688,0.0687,0,-0.016,-0.0181,-0.0267,-0.0353,-0.0384,-0.0446,-0.0474,-0.0476,-0.0391,-0.0344,-0.0312,-0.0128,0.006,0.0252,0.0469,0.0561,0.0788,0.0758,0.0731,0.0744,0.0896,0.0941,0.1147,0.1204,0.0845,0.0846,0.0846,0,-0.0107,-0.0144,-0.0335,-0.0428,-0.0476,-0.0554,-0.059,-0.0549,-0.0535,-0.0386,-0.036,-0.016,-0.0018,0.0302,0.0517,0.0734,0.0833,0.0848,0.0824,0.0929,0.0994,0.102,0.1054,0.0876,0.0877,0.0877,0.0878,0,-0.0106,-0.0196,-0.031,-0.0505,-0.0609,-0.0707,-0.0739,-0.0741,-0.0651,-0.0577,-0.0431,-0.0301,0.0029,0.0307,0.0589,0.0709,0.0932,0.0862,0.1002,0.1068,0.1084,0.1137,0.0764,0.0883,0.0882,0.0882,0.0882,0.0881,-0.016,-0.0274,-0.0449,-0.063,-0.0746,-0.0829,-0.087,-0.0849,-0.0819,-0.068,-0.0526,-0.0314,0.013,0.0537,0.0692,0.1011,0.0978,0.1091,0.1146,0.117,0.1207,0.0827,0.0938,0.0937,0.0937,0.0937,0.0937,0,-0.0254,-0.0374,-0.0548,-0.0764,-0.0881,-0.0909,-0.095,-0.0947,-0.0895,-0.0745,-0.0589,-0.0128,0.0279,0.068,0.1157,0.1307,0.1339,0.1383,0.1453,0.1481,0.1188,0.1169,0.1297,0.1297,0.1297,0.1297,0.1297,0.1297,-0.0324,-0.0507,-0.0603,-0.0846,-0.0953,-0.1054,-0.1069,-0.1035,-0.0938,-0.0706,-0.0452,-0.0227,0.038,0.1202,0.1634,0.1648,0.179,0.1752,0.1835,0.1661,0.1639,0.1618,0.1616,0.1835,0.1836,0.2107,0.211,0.2112]}],[{"header":{"parameterUnit":"m.s-1","parameterCategory":2,"la1":30.2991,"la2":30.254,"lo1":-89.0895,"lo2":-89.0444,"dy":0.0017,"dx":0.0017,"nx":28,"ny":28,"refTime":"2024-04-07T21:00:00:Z","depth":"2","parameterNumber":2,"parameterNumberName":"U-component_of_CURRENTS"},"data":[0,0,0,0,0,0,0,0,0,0,0,0,0,0,0,0,0,0,0,0,0,0,0,0,0,0,0,0,0,0,0,0,0,0,0,0,0,0,0,0,0,0,0,0,0,0,0,0,0,0,0,0,0,0,0,0,0,0,-0.2144,-0.2145,0,-0.2175,-0.2175,-0.2175,-0.2152,-0.2152,-0.2151,-0.2151,-0.2244,-0.2247,-0.225,0,0,0,0,0,0,0,0,0,0,0,0,0,-0.2026,-0.2028,-0.2144,-0.2145,-0.2146,-0.2175,-0.2175,-0.2175,-0.2152,-0.2152,-0.2151,-0.215,-0.2243,-0.2247,-0.2251,0,0,0,0,0,0,0,0,0,0,0,0,0,-0.2065,-0.2029,-0.2144,-0.2142,-0.2142,-0.2175,-0.2175,-0.2175,-0.2153,-0.2152,-0.2151,-0.215,-0.2242,-0.2247,-0.2251,-0.2296,0,0,-0.2265,-0.2267,0,0,0,0,0,0,0,0,-0.2063,-0.2069,-0.2141,-0.2142,-0.2142,-0.2163,-0.2168,-0.222,-0.2153,-0.2144,-0.2151,-0.215,-0.2227,-0.2232,-0.2233,-0.23,-0.2304,-0.2265,-0.2268,-0.227,-0.2271,0,0,0,0,0,0,0,-0.206,-0.2067,-0.2152,-0.2142,-0.2143,-0.2125,-0.213,-0.2177,-0.2187,-0.2144,-0.2144,-0.2155,-0.2227,-0.2228,-0.2235,-0.2306,-0.2265,-0.2269,-0.2272,-0.2274,-0.243,-0.2431,0,0,0,0,0,0,-0.2069,-0.2065,-0.2151,-0.2153,-0.2105,-0.2129,-0.2133,-0.2153,-0.2185,-0.219,-0.2156,-0.2154,-0.2221,-0.223,-0.2238,-0.2305,-0.227,-0.2274,-0.2277,-0.2428,-0.243,-0.2431,0,0,0,0,0,0,-0.2067,-0.2077,-0.215,-0.2112,-0.2121,-0.2132,-0.2155,-0.2155,-0.2171,-0.2194,-0.2199,-0.2174,-0.222,-0.2232,-0.2306,-0.2308,-0.2276,-0.228,-0.2426,-0.2429,-0.2431,-0.2432,0,0,0,0,0,0,-0.2063,-0.2076,-0.2093,-0.2114,-0.2124,-0.2188,-0.2156,-0.2156,-0.218,-0.2178,-0.2212,-0.2218,-0.2221,-0.23,-0.2311,-0.2314,-0.2284,-0.2425,-0.2427,-0.243,-0.243,-0.2434,-0.2437,0,0,0,0,0,-0.2059,-0.2092,-0.2094,-0.2105,-0.2148,-0.219,-0.2194,-0.2195,-0.2182,-0.2203,-0.223,-0.2218,-0.2323,-0.2306,-0.2318,-0.2322,-0.2423,-0.2427,-0.243,-0.2429,-0.2433,-0.2437,0,0,0,0,0,0,-0.2056,-0.2094,-0.2096,-0.2141,-0.2171,-0.2189,-0.2205,-0.2211,-0.2244,-0.2241,-0.2257,-0.2267,-0.2323,-0.2339,-0.232,-0.2376,-0.2364,-0.2369,-0.2358,-0.2363,-0.2366,-0.2345,-0.2288,0,0,0,0,0,-0.2064,-0.2088,-0.213,-0.2161,-0.218,-0.2196,-0.2212,-0.2217,-0.2249,-0.226,-0.2286,-0.2313,-0.2344,-0.2369,-0.24,-0.2452,-0.2445,-0.2458,-0.2462,-0.2464,-0.2457,-0.2451,-0.2452,-0.2442,-0.2442,-0.2442,0,0,-0.207,-0.2093,-0.2107,-0.216,-0.2175,-0.22,-0.2203,-0.2236,-0.2252,-0.2271,-0.2307,-0.2335,-0.2364,-0.2406,-0.2431,-0.2422,-0.2469,-0.2468,-0.247,-0.2461,-0.2454,-0.2455,-0.2455,-0.2444,-0.2444,-0.2443,0,0,-0.207,-0.2117,-0.2125,-0.2153,-0.2189,-0.2215,-0.2233,-0.2268,-0.2282,-0.2338,-0.2338,-0.2374,-0.2439,-0.244,-0.2454,-0.2504,-0.2489,-0.2517,-0.2516,-0.2511,-0.2511,-0.2511,-0.2515,-0.2515,-0.2516,-0.2516,-0.2516,0,-0.2069,-0.2093,-0.2137,-0.2147,-0.2177,-0.2224,-0.2246,-0.2272,-0.2324,-0.2346,-0.2354,-0.2423,-0.2444,-0.2476,-0.2482,-0.2507,-0.251,-0.2493,-0.2512,-0.2511,-0.2511,-0.2515,-0.2515,-0.2516,-0.2516,-0.2516,-0.2516,0,-0.2059,-0.2087,-0.2101,-0.2131,-0.2176,-0.221,-0.2262,-0.2303,-0.2339,-0.2359,-0.2416,-0.2448,-0.2481,-0.2492,-0.2503,-0.2513,-0.2519,-0.2515,-0.2492,-0.2511,-0.2516,-0.2516,-0.2517,-0.2517,-0.2516,-0.2516,0,0,-0.2037,-0.2083,-0.2088,-0.2111,-0.2175,-0.222,-0.2264,-0.2328,-0.2366,-0.2402,-0.2448,-0.2476,-0.2488,-0.2503,-0.2517,-0.2513,-0.2513,-0.2514,-0.2514,-0.2502,-0.2513,-0.2419,-0.241,-0.2512,-0.2512,-0.2512,-0.2521,0,-0.2015,-0.2032,-0.2073,-0.2122,-0.215,-0.2223,-0.228,-0.2341,-0.2393,-0.2453,-0.2471,-0.252,-0.2493,-0.2522,-0.2508,-0.2531,-0.2511,-0.2511,-0.251,-0.251,-0.2409,-0.2405,-0.2252,-0.2237,-0.252,-0.252,-0.252,0,-0.199,-0.2012,-0.2037,-0.2142,-0.2169,-0.2212,-0.2331,-0.2383,-0.2461,-0.2501,-0.2522,-0.255,-0.2562,-0.2541,-0.2531,-0.2538,-0.2512,-0.2512,-0.2512,-0.2418,-0.2414,-0.2263,-0.2226,-0.252,-0.252,-0.252,-0.252,0,-0.1949,-0.2009,-0.2035,-0.2057,-0.2163,-0.2211,-0.2294,-0.2389,-0.2448,-0.2521,-0.2561,-0.2581,-0.2601,-0.2578,-0.2543,-0.2552,-0.2529,-0.2544,-0.2427,-0.2422,-0.2284,-0.2265,-0.2503,-0.2503,-0.2503,-0.2503,-0.2503,0,-0.1914,-0.1938,-0.2019,-0.2029,-0.2119,-0.2203,-0.2305,-0.2379,-0.2476,-0.252,-0.2571,-0.2589,-0.2608,-0.2593,-0.2561,-0.2479,-0.2528,-0.2415,-0.2407,-0.2283,-0.2265,-0.2503,-0.2503,-0.2503,-0.2503,-0.2503,-0.2503,0,-0.1844,-0.1879,-0.193,-0.2044,-0.209,-0.2157,-0.2318,-0.2368,-0.247,-0.2522,-0.2543,-0.2604,-0.2573,-0.2564,-0.2539,-0.2486,-0.2438,-0.2382,-0.2237,-0.2209,-0.2341,-0.2342,-0.2291,-0.2288,-0.2285,-0.2282,-0.228,0,-0.1792,-0.1797,-0.1935,-0.1974,-0.202,-0.2132,-0.2197,-0.234,-0.2373,-0.2497,-0.2491,-0.252,-0.2472,-0.2424,-0.2356,-0.2283,-0.2329,-0.2092,-0.2063,-0.2317,-0.2315,-0.232,-0.2324,-0.1901,-0.1896,-0.1892,-0.1889,0,-0.1716,-0.1772,-0.1852,-0.1919,-0.1985,-0.2049,-0.2142,-0.2177,-0.2296,-0.2332,-0.2344,-0.2337,-0.2309,-0.2169,-0.2091,-0.2026,-0.2103,-0.2005,-0.2299,-0.1968,-0.1946,-0.1946,-0.1963,-0.1853,-0.1856,-0.1859,-0.1861,-0.1862,-0.1695,-0.1739,-0.1836,-0.1878,-0.1938,-0.1918,-0.1918,-0.1987,-0.2015,-0.2023,-0.212,-0.2055,-0.2071,-0.187,-0.1781,-0.1724,-0.1859,-0.1786,-0.18,-0.1818,-0.176,-0.1733,-0.159,-0.1592,-0.1594,-0.1595,-0.1597,0,-0.1643,-0.1701,-0.1763,-0.1806,-0.1773,-0.1833,-0.183,-0.1765,-0.171,-0.1782,-0.1773,-0.1611,-0.1546,-0.1557,-0.1427,-0.141,-0.1415,-0.1343,-0.1358,-0.1394,-0.1427,-0.1351,-0.1071,-0.107,-0.1068,-0.1067,0,0,-0.1622,-0.1653,-0.1658,-0.1588,-0.1607,-0.1498,-0.1447,-0.1366,-0.136,-0.1296,-0.1293,-0.1448,-0.1505,-0.1283,-0.1243,-0.1135,-0.1248,-0.108,-0.1502,-0.1554,-0.1584,-0.1681,-0.1604,0,0,0,0,0]},{"header":{"parameterUnit":"m.s-1","parameterCategory":2,"la1":30.2991,"la2":30.254,"lo1":-89.0895,"lo2":-89.0444,"dy":0.0017,"dx":0.0017,"nx":28,"ny":28,"refTime":"2024-04-07T21:00:00:Z","depth":"2","parameterNumber":3,"parameterNumberName":"V-component_of_CURRENTS"},"data":[0,0,0,0,0,0,0,0,0,0,0,0,0,0,0,0,0,0,0,0,0,0,0,0,0,0,0,0,0,0,0,0,0,0,0,0,0,0,0,0,0,0,0,0,0,0,0,0,0,0,0,0,0,0,0,0,0,0,-0.0163,-0.0162,0,-0.0128,-0.0128,-0.0128,-0.0103,-0.0103,-0.0103,-0.0102,0.007,0.0074,0.0078,0,0,0,0,0,0,0,0,0,0,0,0,0,-0.0176,-0.0176,-0.0163,-0.0162,-0.0162,-0.0128,-0.0128,-0.0128,-0.0103,-0.0103,-0.0103,-0.0102,0.0068,0.0073,0.0078,0,0,0,0,0,0,0,0,0,0,0,0,0,-0.016,-0.0176,-0.0163,-0.0145,-0.0143,-0.0128,-0.0128,-0.0127,-0.0103,-0.0103,-0.0103,-0.0102,0.0066,0.0073,0.0079,0.011,0,0,0.0099,0.0102,0,0,0,0,0,0,0,0,-0.0161,-0.016,-0.0148,-0.0146,-0.0144,-0.0119,-0.0069,-0.0041,-0.0104,-0.012,-0.0102,-0.0102,0.002,0.003,0.0032,0.0118,0.0125,0.0099,0.0103,0.0106,0.0108,0,0,0,0,0,0,0,-0.0162,-0.0161,-0.015,-0.0147,-0.0145,-0.0127,-0.0125,-0.0064,-0.0051,-0.0118,-0.0116,-0.011,0.0022,0.0025,0.0037,0.0128,0.0099,0.0105,0.0109,0.0111,0.0273,0.0273,0,0,0,0,0,0,-0.0166,-0.0162,-0.0152,-0.0149,-0.015,-0.0127,-0.0125,-0.0128,-0.0055,-0.0044,-0.0111,-0.0109,0.0014,0.0029,0.0043,0.0096,0.0106,0.0112,0.0116,0.0272,0.0273,0.0273,0,0,0,0,0,0,-0.0167,-0.0166,-0.0153,-0.0153,-0.015,-0.0128,-0.0132,-0.0128,-0.0124,-0.0051,-0.0037,-0.0111,0.0015,0.0034,0.0098,0.0103,0.0115,0.0121,0.0272,0.0272,0.0273,0.0195,0,0,0,0,0,0,-0.0168,-0.0167,-0.0174,-0.0154,-0.015,-0.0149,-0.0132,-0.0127,-0.0121,-0.0119,-0.0046,-0.003,0.0017,0.0088,0.0104,0.0112,0.0126,0.0271,0.0272,0.0273,0.0197,0.0193,0.019,0,0,0,0,0,-0.0168,-0.0179,-0.0174,-0.0173,-0.016,-0.015,-0.0147,-0.0129,-0.0121,-0.0124,-0.007,-0.0032,0.0105,0.0094,0.0113,0.0122,0.0271,0.0272,0.0273,0.0199,0.0194,0.019,0,0,0,0,0,0,-0.0193,-0.0177,-0.0171,-0.0179,-0.0167,-0.0145,-0.0145,-0.0134,-0.0099,-0.0091,-0.0024,-0.0004,0.0052,0.01,0.0086,0.0172,0.0194,0.0198,0.0131,0.0127,0.0123,0.0127,0.0131,0,0,0,0,0,-0.0202,-0.0204,-0.0186,-0.0193,-0.0188,-0.0169,-0.0163,-0.0152,-0.0117,-0.0104,-0.0053,0.001,0.007,0.0107,0.0163,0.0215,0.0263,0.0234,0.023,0.0226,0.0243,0.0312,0.0316,0.0276,0.0276,0.0276,0,0,-0.0214,-0.0205,-0.0208,-0.0198,-0.0188,-0.0187,-0.0165,-0.016,-0.0152,-0.0085,-0.0055,-0.0002,0.008,0.013,0.016,0.0173,0.0258,0.0227,0.0223,0.0243,0.0313,0.0317,0.0321,0.0277,0.0277,0.0277,0,0,-0.0238,-0.0233,-0.0241,-0.0232,-0.0217,-0.0204,-0.0204,-0.0183,-0.0166,-0.0129,-0.008,-0.002,0.0061,0.0121,0.0163,0.0179,0.0231,0.0188,0.0179,0.0244,0.0248,0.0252,0.0291,0.0299,0.019,0.019,0.019,0,-0.0255,-0.0262,-0.0242,-0.0246,-0.0242,-0.0214,-0.0223,-0.0201,-0.0162,-0.0136,-0.0125,0.0003,0.0063,0.0145,0.0145,0.0172,0.0205,0.0183,0.0238,0.0244,0.0249,0.0288,0.0298,0.0186,0.0187,0.0187,0.0187,0,-0.0282,-0.0286,-0.029,-0.0285,-0.028,-0.0282,-0.0251,-0.0236,-0.021,-0.0176,-0.0101,-0.002,0.0059,0.0082,0.0121,0.0189,0.0196,0.0218,0.0244,0.0248,0.0289,0.0301,0.0181,0.0182,0.0184,0.0184,0,0,-0.0319,-0.0312,-0.031,-0.0326,-0.03,-0.0309,-0.0282,-0.025,-0.0235,-0.0172,-0.0131,-0.0026,0.0018,0.007,0.0126,0.0189,0.0242,0.0213,0.0218,0.024,0.0366,0.0334,0.0344,0.0264,0.0267,0.0269,0.0368,0,-0.0345,-0.0366,-0.0347,-0.0375,-0.0389,-0.0354,-0.0334,-0.0298,-0.0254,-0.0207,-0.0098,-0.0039,0.0013,0.0045,0.0119,0.0221,0.0274,0.0212,0.037,0.0375,0.0338,0.0358,0.0319,0.0402,0.038,0.0382,0.0383,0,-0.0363,-0.0386,-0.041,-0.0428,-0.043,-0.0435,-0.0411,-0.0394,-0.0302,-0.026,-0.0167,-0.0092,0.003,0.0057,0.0246,0.0199,0.0275,0.0349,0.0355,0.0369,0.0367,0.0403,0.0425,0.0404,0.0402,0.04,0.0399,0,-0.0392,-0.0424,-0.0451,-0.0457,-0.0467,-0.0469,-0.0468,-0.0404,-0.0391,-0.0293,-0.0262,-0.0109,-0.0031,0.0105,0.0259,0.0252,0.0449,0.046,0.0504,0.0502,0.0526,0.0521,0.0579,0.0579,0.0579,0.0579,0.0578,0,-0.0406,-0.0436,-0.0477,-0.0493,-0.0555,-0.0527,-0.0546,-0.0517,-0.0451,-0.0431,-0.0298,-0.0236,-0.0016,0.0121,0.0252,0.0417,0.0449,0.0515,0.0536,0.0493,0.0485,0.0539,0.0533,0.0582,0.0582,0.0581,0.058,0,-0.0423,-0.0426,-0.0502,-0.0548,-0.0566,-0.0619,-0.0634,-0.0637,-0.056,-0.0525,-0.0495,-0.0314,-0.0129,0.007,0.03,0.0401,0.056,0.0599,0.0518,0.0527,0.0567,0.0556,0.0672,0.0672,0.0672,0.0672,0.0672,0,-0.0431,-0.0465,-0.0573,-0.0632,-0.066,-0.0719,-0.0742,-0.0702,-0.0697,-0.0574,-0.0557,-0.0369,-0.0237,0.0087,0.0311,0.0535,0.0555,0.0603,0.0592,0.0574,0.0582,0.0571,0.0561,0.0589,0.0588,0.0587,0.0587,0,-0.0492,-0.0531,-0.0594,-0.0721,-0.0787,-0.0863,-0.0886,-0.0897,-0.0825,-0.0766,-0.065,-0.0531,-0.0215,0.0048,0.0329,0.045,0.0569,0.0595,0.0634,0.0553,0.0499,0.0505,0.0498,0.0582,0.0582,0.0583,0.0583,0.0583,-0.057,-0.0634,-0.0716,-0.0839,-0.0911,-0.0983,-0.1025,-0.1007,-0.0991,-0.0876,-0.0743,-0.0538,-0.0261,0.0137,0.0347,0.0541,0.0544,0.0596,0.0597,0.0599,0.0554,0.0501,0.0575,0.0575,0.0576,0.0576,0.0576,0,-0.0696,-0.0727,-0.083,-0.0964,-0.1047,-0.1057,-0.1103,-0.11,-0.1069,-0.0921,-0.078,-0.0491,-0.0193,0.0091,0.0391,0.0563,0.0568,0.0583,0.0571,0.0574,0.0577,0.0531,0.0546,0.0546,0.0547,0.0548,0,0,-0.0786,-0.0874,-0.091,-0.1061,-0.1124,-0.1201,-0.1222,-0.1191,-0.1092,-0.0942,-0.0771,-0.0532,-0.0189,0.0023,0.0256,0.0415,0.0442,0.0416,0.0418,0.0378,0.0379,0.0558,0.0486,0,0,0,0,0]}],[{"header":{"parameterUnit":"m.s-1","parameterCategory":2,"la1":30.2991,"la2":30.254,"lo1":-89.0895,"lo2":-89.0444,"dy":0.0017,"dx":0.0017,"nx":28,"ny":28,"refTime":"2024-04-07T21:00:00:Z","depth":"4","parameterNumber":2,"parameterNumberName":"U-component_of_CURRENTS"},"data":[0,0,0,0,0,0,0,0,0,0,0,0,0,0,0,0,0,0,0,0,0,0,0,0,0,0,0,0,0,0,0,0,0,0,0,0,0,0,0,0,0,0,0,0,0,0,0,0,0,0,0,0,0,0,0,0,0,0,-0.1269,-0.1268,0,-0.1204,-0.1204,-0.1203,-0.1187,-0.1187,-0.1188,-0.1188,-0.1121,-0.1119,-0.1117,0,0,0,0,0,0,0,0,0,0,0,0,0,-0.1311,-0.1311,-0.1269,-0.1268,-0.1267,-0.1204,-0.1204,-0.1203,-0.1187,-0.1187,-0.1188,-0.1188,-0.1122,-0.1119,-0.1117,0,0,0,0,0,0,0,0,0,0,0,0,0,-0.1276,-0.1311,-0.1269,-0.1251,-0.1248,-0.1205,-0.1204,-0.1203,-0.1187,-0.1187,-0.1188,-0.1188,-0.1123,-0.112,-0.1117,-0.1089,0,0,-0.1107,-0.1106,0,0,0,0,0,0,0,0,-0.1278,-0.1275,-0.1254,-0.1252,-0.1249,-0.1203,-0.1194,-0.1164,-0.1187,-0.1212,-0.1188,-0.1188,-0.1147,-0.1142,-0.1131,-0.1086,-0.1083,-0.1107,-0.1105,-0.1104,-0.1103,0,0,0,0,0,0,0,-0.128,-0.1277,-0.1245,-0.1253,-0.125,-0.1222,-0.1218,-0.1188,-0.1179,-0.121,-0.1208,-0.1198,-0.1146,-0.1134,-0.1129,-0.1082,-0.1107,-0.1104,-0.1102,-0.1101,-0.1117,-0.1119,0,0,0,0,0,0,-0.1289,-0.1279,-0.1247,-0.1243,-0.1263,-0.1221,-0.1217,-0.1219,-0.1179,-0.1173,-0.1198,-0.1198,-0.1139,-0.1133,-0.1127,-0.116,-0.1104,-0.1101,-0.1099,-0.1115,-0.1118,-0.112,0,0,0,0,0,0,-0.129,-0.1287,-0.125,-0.1258,-0.1251,-0.122,-0.1222,-0.1217,-0.1223,-0.117,-0.1165,-0.1211,-0.1139,-0.1131,-0.113,-0.1155,-0.11,-0.1097,-0.1112,-0.1116,-0.1119,-0.1182,0,0,0,0,0,0,-0.1292,-0.1288,-0.1303,-0.1259,-0.1251,-0.1242,-0.1221,-0.1215,-0.1214,-0.1214,-0.1179,-0.1172,-0.1139,-0.1135,-0.1127,-0.1149,-0.1094,-0.1109,-0.1114,-0.1118,-0.1177,-0.1187,-0.1196,0,0,0,0,0,-0.1294,-0.1307,-0.1304,-0.13,-0.1269,-0.1243,-0.1237,-0.1216,-0.1215,-0.1223,-0.1209,-0.1174,-0.1157,-0.1134,-0.1124,-0.1146,-0.1107,-0.1113,-0.1118,-0.1173,-0.1185,-0.1196,0,0,0,0,0,0,-0.1331,-0.1305,-0.1301,-0.1307,-0.1287,-0.124,-0.1247,-0.123,-0.1223,-0.1236,-0.1187,-0.118,-0.12,-0.1167,-0.1143,-0.117,-0.1132,-0.1136,-0.1178,-0.1189,-0.1198,-0.1184,-0.1092,0,0,0,0,0,-0.1347,-0.1357,-0.132,-0.1331,-0.1325,-0.1292,-0.1283,-0.1272,-0.1252,-0.125,-0.123,-0.1217,-0.1209,-0.1195,-0.1191,-0.1183,-0.1159,-0.12,-0.1209,-0.1217,-0.1204,-0.1226,-0.1236,-0.1137,-0.1137,-0.1137,0,0,-0.1366,-0.1353,-0.136,-0.1341,-0.1328,-0.1315,-0.129,-0.1291,-0.1286,-0.1243,-0.1255,-0.1255,-0.1222,-0.1233,-0.1237,-0.1204,-0.1231,-0.1224,-0.123,-0.1212,-0.1233,-0.1242,-0.125,-0.114,-0.114,-0.1139,0,0,-0.1385,-0.1399,-0.1402,-0.1394,-0.138,-0.1357,-0.1363,-0.1339,-0.134,-0.135,-0.1328,-0.1328,-0.1326,-0.1288,-0.1271,-0.1323,-0.1295,-0.1353,-0.1362,-0.1386,-0.1393,-0.1399,-0.1364,-0.1367,-0.1339,-0.1339,-0.1339,0,-0.1407,-0.1393,-0.14,-0.1397,-0.138,-0.1379,-0.1362,-0.1369,-0.1353,-0.135,-0.1374,-0.1372,-0.1341,-0.1314,-0.1343,-0.1337,-0.1348,-0.1316,-0.1395,-0.1401,-0.1406,-0.1369,-0.1371,-0.1343,-0.1342,-0.1342,-0.1341,0,-0.1402,-0.1407,-0.1412,-0.1404,-0.1402,-0.1393,-0.1391,-0.141,-0.1426,-0.1421,-0.1445,-0.1426,-0.1413,-0.142,-0.1393,-0.1413,-0.1407,-0.1418,-0.1359,-0.142,-0.1377,-0.1378,-0.1348,-0.1346,-0.1345,-0.1344,0,0,-0.1379,-0.1399,-0.1398,-0.1396,-0.1396,-0.139,-0.1409,-0.1394,-0.1419,-0.1445,-0.146,-0.1449,-0.1464,-0.1446,-0.1426,-0.1433,-0.1465,-0.1453,-0.1452,-0.1402,-0.1505,-0.1466,-0.1462,-0.1524,-0.1525,-0.1526,-0.1452,0,-0.1351,-0.1346,-0.1356,-0.1354,-0.1341,-0.1361,-0.1381,-0.1396,-0.143,-0.1471,-0.1462,-0.1495,-0.1469,-0.1491,-0.1493,-0.1491,-0.1477,-0.1482,-0.1465,-0.1462,-0.141,-0.1466,-0.153,-0.1453,-0.1453,-0.1453,-0.1453,0,-0.1288,-0.1305,-0.1288,-0.132,-0.1319,-0.1335,-0.1362,-0.138,-0.1438,-0.1484,-0.1512,-0.1543,-0.1531,-0.1543,-0.152,-0.1547,-0.1525,-0.1514,-0.1512,-0.1451,-0.1427,-0.1386,-0.1454,-0.1454,-0.1454,-0.1454,-0.1454,0,-0.1197,-0.1232,-0.1216,-0.1224,-0.1277,-0.1291,-0.1319,-0.1377,-0.1404,-0.1497,-0.1549,-0.157,-0.1589,-0.1591,-0.1569,-0.1571,-0.1571,-0.1555,-0.1473,-0.1467,-0.149,-0.1485,-0.1539,-0.154,-0.154,-0.154,-0.154,0,-0.1091,-0.1087,-0.1195,-0.1182,-0.122,-0.1266,-0.1306,-0.1358,-0.1436,-0.1471,-0.155,-0.1579,-0.1624,-0.1631,-0.1599,-0.1542,-0.1583,-0.1471,-0.146,-0.1517,-0.1516,-0.1489,-0.1484,-0.1537,-0.1538,-0.1538,-0.1539,0,-0.0957,-0.1003,-0.1024,-0.1124,-0.1163,-0.1193,-0.1294,-0.1334,-0.1421,-0.1473,-0.1507,-0.1593,-0.161,-0.1623,-0.1621,-0.156,-0.1522,-0.1486,-0.1523,-0.1516,-0.1379,-0.1378,-0.1361,-0.1359,-0.1358,-0.1357,-0.1356,0,-0.0875,-0.0877,-0.0997,-0.1031,-0.1076,-0.115,-0.1202,-0.1312,-0.1347,-0.1452,-0.1457,-0.1531,-0.1573,-0.1513,-0.1551,-0.1497,-0.1478,-0.1436,-0.1416,-0.1376,-0.1367,-0.1369,-0.137,-0.1353,-0.1353,-0.1353,-0.1352,0,-0.0767,-0.0825,-0.0851,-0.0931,-0.0996,-0.1074,-0.1147,-0.1169,-0.1277,-0.1376,-0.1395,-0.142,-0.1443,-0.1456,-0.1457,-0.1408,-0.1463,-0.142,-0.1421,-0.1402,-0.1367,-0.136,-0.1363,-0.1347,-0.1348,-0.1349,-0.1349,0,-0.0712,-0.072,-0.0769,-0.0828,-0.0905,-0.0955,-0.1023,-0.1077,-0.113,-0.1254,-0.1255,-0.1336,-0.1422,-0.1407,-0.1393,-0.138,-0.1335,-0.1275,-0.1283,-0.1289,-0.1309,-0.1257,-0.1192,0,0,0,0,0,-0.0665,-0.0648,-0.0675,-0.0718,-0.0785,-0.0836,-0.0961,-0.1033,-0.115,-0.1135,-0.1193,-0.1216,-0.1239,-0.128,-0.1245,-0.1338,-0.1328,-0.1291,-0.126,-0.1321,-0.1326,-0.1363,0,0,0,0,0,0,-0.0627,-0.0628,-0.0626,-0.061,-0.0621,-0.0691,-0.0775,-0.0868,-0.0871,-0.0998,-0.1019,-0.1123,-0.1161,-0.1221,-0.1204,-0.1218,-0.1174,-0.135,-0.1347,-0.1317,-0.1322,-0.1327,-0.1366,0,0,0,0,0]},{"header":{"parameterUnit":"m.s-1","parameterCategory":2,"la1":30.2991,"la2":30.254,"lo1":-89.0895,"lo2":-89.0444,"dy":0.0017,"dx":0.0017,"nx":28,"ny":28,"refTime":"2024-04-07T21:00:00:Z","depth":"4","parameterNumber":3,"parameterNumberName":"V-component_of_CURRENTS"},"data":[0,0,0,0,0,0,0,0,0,0,0,0,0,0,0,0,0,0,0,0,0,0,0,0,0,0,0,0,0,0,0,0,0,0,0,0,0,0,0,0,0,0,0,0,0,0,0,0,0,0,0,0,0,0,0,0,0,0,-0.0126,-0.0126,0,-0.0139,-0.014,-0.014,-0.0155,-0.0155,-0.0155,-0.0155,-0.0157,-0.0157,-0.0157,0,0,0,0,0,0,0,0,0,0,0,0,0,-0.0124,-0.0125,-0.0126,-0.0126,-0.0126,-0.0139,-0.014,-0.014,-0.0155,-0.0155,-0.0155,-0.0155,-0.0157,-0.0157,-0.0157,0,0,0,0,0,0,0,0,0,0,0,0,0,-0.0134,-0.0125,-0.0126,-0.0132,-0.0133,-0.0139,-0.014,-0.014,-0.0155,-0.0155,-0.0155,-0.0155,-0.0157,-0.0157,-0.0157,-0.0162,0,0,-0.0158,-0.0158,0,0,0,0,0,0,0,0,-0.0133,-0.0134,-0.0131,-0.0132,-0.0132,-0.0142,-0.014,-0.0146,-0.0155,-0.015,-0.0155,-0.0155,-0.0149,-0.015,-0.0158,-0.0162,-0.0162,-0.0158,-0.0158,-0.0158,-0.0158,0,0,0,0,0,0,0,-0.0132,-0.0134,-0.0135,-0.0131,-0.0132,-0.0137,-0.0139,-0.0141,-0.0153,-0.0151,-0.0151,-0.0147,-0.0149,-0.0157,-0.0158,-0.0162,-0.0158,-0.0158,-0.0158,-0.0158,-0.0188,-0.0189,0,0,0,0,0,0,-0.0123,-0.0133,-0.0134,-0.0135,-0.0128,-0.0137,-0.0139,-0.0142,-0.0153,-0.0154,-0.0147,-0.0147,-0.0157,-0.0157,-0.0158,-0.0179,-0.0158,-0.0158,-0.0159,-0.0187,-0.0188,-0.0189,0,0,0,0,0,0,-0.0123,-0.0123,-0.0134,-0.0131,-0.0132,-0.0137,-0.0141,-0.0142,-0.0152,-0.015,-0.0151,-0.0155,-0.0157,-0.0157,-0.0167,-0.0178,-0.0158,-0.0159,-0.0187,-0.0188,-0.0188,-0.0211,0,0,0,0,0,0,-0.0123,-0.0124,-0.0129,-0.0131,-0.0132,-0.0142,-0.014,-0.0143,-0.0148,-0.0149,-0.0156,-0.0156,-0.0157,-0.0167,-0.0167,-0.0178,-0.0159,-0.0186,-0.0187,-0.0188,-0.021,-0.0213,-0.0216,0,0,0,0,0,-0.0123,-0.0131,-0.0129,-0.0129,-0.0137,-0.0142,-0.0144,-0.0149,-0.0148,-0.0157,-0.0163,-0.0156,-0.0175,-0.0167,-0.0168,-0.0179,-0.0185,-0.0187,-0.0188,-0.0209,-0.0212,-0.0216,0,0,0,0,0,0,-0.0138,-0.0133,-0.0131,-0.0138,-0.0139,-0.0143,-0.015,-0.0151,-0.0163,-0.0165,-0.0164,-0.0164,-0.0179,-0.0176,-0.0167,-0.0192,-0.0179,-0.0181,-0.0195,-0.0198,-0.0201,-0.0211,-0.0159,0,0,0,0,0,-0.014,-0.0144,-0.0139,-0.0147,-0.0146,-0.0148,-0.0152,-0.0155,-0.016,-0.0166,-0.017,-0.0176,-0.0186,-0.0188,-0.0196,-0.0206,-0.0199,-0.0215,-0.0218,-0.022,-0.0229,-0.0227,-0.0231,-0.0194,-0.0194,-0.0194,0,0,-0.0149,-0.0146,-0.015,-0.015,-0.0152,-0.0168,-0.0152,-0.0159,-0.0178,-0.0164,-0.0191,-0.0187,-0.0192,-0.0208,-0.0214,-0.0205,-0.0226,-0.0222,-0.0224,-0.0232,-0.0229,-0.0233,-0.0236,-0.0195,-0.0194,-0.0194,0,0,-0.0174,-0.0164,-0.0179,-0.018,-0.0179,-0.0182,-0.0183,-0.0187,-0.0194,-0.0211,-0.021,-0.022,-0.0225,-0.024,-0.0245,-0.0271,-0.0243,-0.0259,-0.028,-0.0278,-0.0281,-0.0283,-0.0271,-0.0272,-0.0258,-0.0258,-0.0258,0,-0.0188,-0.0206,-0.0185,-0.02,-0.0211,-0.019,-0.0218,-0.022,-0.0229,-0.0236,-0.0223,-0.0247,-0.025,-0.0279,-0.0283,-0.028,-0.0258,-0.0264,-0.0281,-0.0284,-0.0286,-0.0273,-0.0274,-0.026,-0.0259,-0.0259,-0.0259,0,-0.0227,-0.0241,-0.0248,-0.0264,-0.0271,-0.0287,-0.0283,-0.0292,-0.029,-0.0287,-0.0305,-0.0306,-0.0318,-0.0317,-0.0305,-0.0322,-0.0294,-0.0286,-0.0271,-0.0291,-0.0276,-0.0276,-0.0261,-0.0261,-0.0261,-0.026,0,0,-0.0265,-0.0276,-0.028,-0.0304,-0.0307,-0.0323,-0.0344,-0.0361,-0.0375,-0.0369,-0.0387,-0.04,-0.0377,-0.0382,-0.0367,-0.0361,-0.0355,-0.0319,-0.0318,-0.0305,-0.0327,-0.0233,-0.0224,-0.0331,-0.0332,-0.0332,-0.0307,0,-0.0308,-0.0351,-0.0347,-0.04,-0.0425,-0.0415,-0.0443,-0.0449,-0.0434,-0.0438,-0.0426,-0.0433,-0.0406,-0.0403,-0.0393,-0.0362,-0.0358,-0.0362,-0.0312,-0.0311,-0.0223,-0.0223,-0.0334,-0.0307,-0.0307,-0.0308,-0.0308,0,-0.0361,-0.0378,-0.0434,-0.0477,-0.0488,-0.0518,-0.0549,-0.0566,-0.0549,-0.0533,-0.0517,-0.0483,-0.0477,-0.0447,-0.0413,-0.0403,-0.0371,-0.0347,-0.0345,-0.0252,-0.0218,-0.0285,-0.0309,-0.0309,-0.0309,-0.0308,-0.0308,0,-0.0413,-0.0451,-0.0501,-0.0512,-0.0547,-0.0578,-0.0601,-0.0597,-0.0611,-0.058,-0.0573,-0.0542,-0.0527,-0.0485,-0.04,-0.0407,-0.0339,-0.0354,-0.025,-0.0243,-0.0327,-0.0324,-0.0347,-0.0347,-0.0347,-0.0347,-0.0347,0,-0.047,-0.0517,-0.0528,-0.0557,-0.0621,-0.0627,-0.0681,-0.0684,-0.0678,-0.0685,-0.0622,-0.0608,-0.053,-0.0463,-0.0405,-0.03,-0.0345,-0.0252,-0.023,-0.0336,-0.0335,-0.0326,-0.0324,-0.0346,-0.0346,-0.0347,-0.0347,0,-0.0529,-0.0541,-0.0599,-0.0632,-0.0651,-0.0694,-0.074,-0.0765,-0.0749,-0.075,-0.0741,-0.0659,-0.0556,-0.0455,-0.0368,-0.0304,-0.0224,-0.0181,-0.0277,-0.0261,-0.0139,-0.0139,-0.0096,-0.0093,-0.009,-0.0087,-0.0085,0,-0.0566,-0.0594,-0.0644,-0.068,-0.0702,-0.0756,-0.0796,-0.0803,-0.0812,-0.0776,-0.0775,-0.0669,-0.0595,-0.0397,-0.0293,-0.015,-0.0134,-0.0098,-0.0147,-0.0131,-0.0114,-0.0118,-0.0122,-0.008,-0.008,-0.0079,-0.0078,0,-0.0615,-0.0631,-0.0666,-0.0728,-0.078,-0.0834,-0.0877,-0.0885,-0.0875,-0.0868,-0.078,-0.0658,-0.0522,-0.0368,-0.0217,-0.0134,-0.0123,-0.0067,-0.0075,-0.0121,-0.0111,-0.0098,-0.0105,-0.0068,-0.0069,-0.007,-0.0071,0,-0.0638,-0.0669,-0.0706,-0.0764,-0.0833,-0.0879,-0.0903,-0.0896,-0.0897,-0.0838,-0.0806,-0.0655,-0.0568,-0.0358,-0.0237,-0.0104,-0.011,-0.0107,-0.0113,-0.0124,-0.0121,-0.0111,-0.0048,0,0,0,0,0,-0.0644,-0.0676,-0.0738,-0.08,-0.0872,-0.0903,-0.0942,-0.0948,-0.0928,-0.0866,-0.0829,-0.0692,-0.0467,-0.0376,-0.0232,-0.0208,-0.0099,-0.0036,-0.0103,-0.001,-0.0022,-0.0003,0,0,0,0,0,0,-0.0642,-0.0698,-0.0731,-0.0812,-0.0859,-0.0928,-0.0947,-0.0937,-0.089,-0.0851,-0.0729,-0.0664,-0.0448,-0.0547,-0.0231,-0.0191,-0.0215,0.0066,0.0069,-0.0003,-0.0014,-0.0023,-0.0009,0,0,0,0,0]}]]